Regional Weather Roundup
Issued by NWS Upton, NY

Current Version | Previous Version | Graphics & Text | Print | Product List | Glossary Off
Versions: 1 2 3 4 5 6 7 8 9 10 11 12 13 14 15 16 17 18 19 20 21 22 23 24 25 26 27 28 29 30 31 32 33 34 35 36 37 38 39 40 41 42 43 44 45 46 47 48 49 50

000
ASUS41 KOKX 280705
RWROKX

REGIONAL WEATHER ROUNDUP
NATIONAL WEATHER SERVICE NEW YORK NY
200 AM EST SAT FEB 28 2015

NOTE: "FAIR" INDICATES FEW OR NO CLOUDS BELOW 12,000 FEET WITH NO
SIGNIFICANT WEATHER AND/OR OBSTRUCTIONS TO VISIBILITY.

NYZ071-072-176-178-NJZ106-104-280800-
NEW YORK CITY METRO AREA


CITY           SKY/WX    TMP DP  RH WIND       PRES   REMARKS
CENTRAL PARK   CLEAR     19  -4  36 VRB5      30.67R WCI  12
LAGUARDIA APRT CLEAR     19  -1  41 N14       30.65R WCI   6
KENNEDY INTL   CLEAR     20  -4  34 NW15      30.65S WCI   6
NEWARK/LIBERTY CLEAR     18  -1  43 NW14      30.66R WCI   4
BRNX BOT. GARD   N/A    N/A N/A N/A NW5       30.65R
TETERBORO      CLEAR     16  -3  43 NW7       30.66R WCI   6
$$

NYZ177-179-078>081-280800-
LONG ISLAND NEW YORK

CITY           SKY/WX    TMP DP  RH WIND       PRES   REMARKS
FARMINGDALE    CLEAR     18   2  49 N8        30.63S WCI   8
ISLIP          CLEAR     18   3  52 N9        30.61S WCI   7
SHIRLEY        CLEAR     16   3  56 N8        30.63S WCI   5
WESTHAMPTON    CLEAR     15   2  56 N8        30.63S WCI   4
MONTAUK POINT    N/A     20   5  52 N14       30.61R WCI   7
$$

NYZ052-065-067-280800-
HUDSON VALLEY

CITY           SKY/WX    TMP DP  RH WIND       PRES   REMARKS
WHITE PLAINS   CLEAR     11  -3  53 NW9       30.60S WCI  -2
NEWBURGH       NOT AVBL
MONTGOMERY     CLEAR     11  -7  44 NW13      30.62S WCI  -4
POUGHKEEPSIE   CLEAR      2  -7  66 CALM      30.66R
ALBANY         PTCLDY     4  -6  63 CALM      30.68R
$$

NJZ001-105-106-008-010-013-015-019>022-104-280800-
NEW JERSEY

CITY           SKY/WX    TMP DP  RH WIND       PRES   REMARKS
NEWARK/LIBERTY CLEAR     18  -1  43 NW14      30.66R WCI   4
TETERBORO      CLEAR     16  -3  43 NW7       30.66R WCI   6
CALDWELL       CLEAR     14  -5  42 N5        30.66S WCI   6
MORRISTOWN     CLEAR     18  -4  38 NW5       30.65S WCI  11
SOMERVILLE     CLEAR     15  -3  44 N7        30.65S WCI   5
SUSSEX         CLEAR     12  -6  44 NW9       30.63F WCI   0
ANDOVER          N/A     10  -5  50 N6        30.63S WCI   0
TRENTON        CLEAR     16  -2  45 N3        30.67R
MILLVILLE      CLEAR    N/A N/A N/A W5        30.66R
ATLANTIC CITY  CLEAR     14   6  70 NW6       30.65R WCI   5
WRIGHTSTOWN    CLEAR     15   4  60 N7        30.64R WCI   6
TOMS RIVER     CLEAR     16   1  53 CALM      30.67R
BELMAR         CLEAR     16   0  48 NW7       30.65R WCI   6
$$

PAZ047>061-062-071-280800-
EASTERN PENNSYLVANIA

CITY           SKY/WX    TMP DP  RH WIND       PRES   REMARKS
PHILADELPHIA   CLEAR     21   4  47 N12       30.69R WCI   9
ALLENTOWN      CLEAR     11  -4  51 NW6       30.66R WCI   1
SCRANTON       PTCLDY     3  -5  69 CALM      30.63R
$$

CTZ002-004>006-009-010-012-RIZ004-006-007-MAZ004-011-015-280800-
SOUTHERN NEW ENGLAND
 IN CT

CITY           SKY/WX    TMP DP  RH WIND       PRES   REMARKS
BRADLEY INTL   CLEAR     12  -3  51 N5        30.63R WCI   4
HARTFORD       CLEAR     13  -2  51 N8        30.65R WCI   2
DANBURY        CLEAR      2  -6  69 CALM      30.63R
WTRBRY/OXFORD  PTCLDY     3 -13  47 N5        30.58R WCI  -6
BRIDGEPORT     CLEAR     14   0  53 N8        30.64R WCI   3
MERIDEN        CLEAR      6  -4  63 CALM      30.64R
NEW HAVEN      CLEAR     13  -1  54 N7        30.63R WCI   3
CHESTER        FAIR      14   0  52 N7        30.60R WCI   4
GROTON         CLEAR     13   0  56 NW9       30.61R WCI   1
WILLIMANTIC    CLEAR      8  -3  61 W5        30.61R WCI   0

 IN RI

CITY           SKY/WX    TMP DP  RH WIND       PRES   REMARKS
PROVIDENCE     CLEAR     14  -2  49 W8        30.60R WCI   3
BLOCK ISLAND   CLEAR     18   3  53 NW13      30.56F WCI   4
WESTERLY       CLEAR     15   0  51 NW8       30.61R WCI   4

 IN MA

CITY           SKY/WX    TMP DP  RH WIND       PRES   REMARKS
BOSTON         CLEAR     16   0  49 W10       30.59R WCI   4
WORCESTER      CLEAR      9  -4  55 W14       30.51R WCI  -7
WESTFIELD      CLEAR     10  -3  55 N6        30.61R WCI   0
PROVINCETOWN   CLEAR     23   3  42 NW14      30.57R WCI  11
NANTUCKET      CLEAR     20   8  60 NW7       30.56R WCI  11
$$

ANZ330-335-338-340-345-350-353-355-280800-
COASTAL MARINE OBSERVATIONS


STATION/POSITION TIME  SKY/WX   TEMP    WIND        PRES    VSBY  WAVE
                                AIR SEA DIR/SP/G                  HT/PER
                 (UTC)          (F)     (DEG/KT/KT) (MB)    (MI)  (FT/S)
NY HARB ENTRANCE 0700            24 38  340/ 17/ 19 1037.7          4/11
4S FIRE IS       NOT AVBL
20S FIRE ISLAND  0600               36              1037.0          5/10
23SW MTP         0700                                 N/A           5/11
HUDSON CANYON    NOT AVBL
EXECUTION ROCKS  NOT AVBL
WESTERN LI SOUND NOT AVBL
CENTRAL LI SOUND NOT AVBL
EASTERN LI SOUND NOT AVBL
ROBBINS REEF     0700            19     350/ 14/ 17 1036.6
$$


>>>>>>>>>>>>>>>>>>>>>>>>>>>> KEY <<<<<<<<<<<<<<<<<<<<<<<<<<<
>                                                          <
>     SKY/WX - SKY CONDITION/PRESENT WEATHER               <
>     TMP    - TEMPERATURE IN FAHRENHEIT                   <
>     DP     - DEWPOINT IN FAHRENHEIT                      <
>     RH     - RELATIVE HUMIDITY IN PERCENT                <
>     WIND   - DIRECTION AND SPEED IN MPH                  <
>     PRES   - MEAN SEA LEVEL PRESSURE IN INCHES OF HG     <
>     WCI    - WIND CHILL INDEX                            <
>     VSB    - VISIBILITY IN MILES                         <
>     HX     - HEAT INDEX                                  <
>     TC     - TEMPERATURE IN CELSIUS                      <
>     VRB    - VARIABLE WIND DIRECTION                     <
>                                                          <
>>>>>>>>>>>>>>>>>>>>>>>>>>>> KEY <<<<<<<<<<<<<<<<<<<<<<<<<<<




USA.gov is the U.S. government's official web portal to all federal, state and local government web resources and services.